Tracking 29892 objects as of 21-Nov-2024
HD Live streaming from Space Station
objects crossing your sky now

ARIANE 5 R/B

Track ARIANE 5 R/B now!


NORAD ID: 43634
Int'l Code: 2018-074C
Perigee: 274.7 km
Apogee: 33,960.5 km
Inclination: 6.2 °
Period: 597.1 minutes
Semi major axis: 23488 km
RCS: Unknown
Launch date: September 25, 2018
Source: France (FR)
Launch site: FRENCH GUIANA (FRGUI)

Note: This is a ROCKET BODY
Your satellite tracking list
Your tracking list is empty




NASA's NSSDC Master Catalog

Two Line Element Set (TLE):
1 43634U 18074C   24325.17439970  .00004196  00000-0  16022-2 0  9999
2 43634   6.1873 299.6171 7170674 263.6884  17.9782  2.41166962 52379
Source of the keplerian elements: AFSPC